Regional Weather Roundup
Issued by NWS Nashville, TN

Home | Current Version | Previous Version | Text Only | Print | Product List | Glossary On
Versions: 1 2 3 4 5 6 7 8 9 10 11 12 13 14 15 16 17 18 19 20 21 22 23 24 25 26 27 28 29 30 31 32 33 34 35 36 37 38 39 40 41 42 43 44 45 46 47 48 49 50
000
ASUS44 KOHX 232010
RWROHX
MIDDLE TENNESSEE HOURLY WEATHER ROUNDUP
NATIONAL WEATHER SERVICE NASHVILLE TN
200 PM CST THU FEB 23 2017

NOTE: "FAIR" INDICATES FEW OR NO CLOUDS BELOW 12,000 FEET WITH
NO SIGNIFICANT WEATHER AND/OR OBSTRUCTIONS TO VISIBILITY.

* THESE REPORTS ARE NOT UNDER NWS QUALITY CONTROL AND MAY NOT
  REPORT WEATHER SUCH AS PRECIPITATION AND FOG.


TNZ005>011-023>034-057-059-062>066-078-080-232100
...NORTHERN MIDDLE TENNESSEE...

CITY           SKY/WX    TMP DP  RH WIND       PRES   REMARKS
CLARKSVILLE    CLOUDY    72  55  55 SW14      29.75F
CROSSVILLE     PTSUNNY   67  52  58 VRB3      29.83F
GALLATIN       CLOUDY    73  55  53 S9G16     29.79F
DICKSON        PTSUNNY   70  55  58 S14       29.76F
NASHVILLE      PTSUNNY   74  54  49 S14       29.78F
PORTLAND       CLOUDY    72  57  60 S12G17    29.77F
SMYRNA         CLOUDY    72  56  57 S9        29.78F
SPARTA         MOSUNNY   72  54  53 SW9G15    29.78F
SPRINGFIELD    PTSUNNY   72  57  60 S12       29.75F
WEST NASHVILLE PTSUNNY   72  55  56 S9        29.76F
$$
TNZ056-058-060-061-075>077-079-093>097-232100
...SOUTHERN MIDDLE TENNESSEE...

CITY           SKY/WX    TMP DP  RH WIND       PRES   REMARKS
COLUMBIA       PTSUNNY   72  64  78 S7        29.76F
FAYETTEVILLE   CLOUDY    70  55  60 S10       29.80F
MCMINNVILLE    MOSUNNY   73  55  53 SW10      29.80F
SHELBYVILLE    CLOUDY    72  57  60 S13       29.80F
TULLAHOMA      MOSUNNY   70  54  56 S8        29.80F
WINCHESTER     PTSUNNY   73  55  53 S10       29.80F
$$


...KEY TO REMARKS...
VSB - VISIBILITY IN MILES
WCI - WIND CHILL INDEX
HX  - HEAT INDEX




USA.gov is the U.S. government's official web portal to all federal, state and local government web resources and services.